Perryton, TX

1:51 AM CST on December 11, 2017 (GMT -0600)
Perryton Ochiltree County

Weather History for KPYX - September, 2013

Change the Weather History Date:

Thursday, September 12, 2013

  Actual Average Record
Temperature  
Mean Temperature 78 °F -  
Max Temperature 89 °F 86 °F 100 °F (2004)
Min Temperature 68 °F 58 °F 44 °F (2014)
Cooling Degree Days 12    
Growing Degree Days 28 (Base 50)    
Moisture  
Dew Point 61 °F    
Average Humidity 66    
Maximum Humidity 89    
Minimum Humidity 29    
Precipitation  
Precipitation 0.00 in - - ()
Sea Level Pressure  
Sea Level Pressure 30.16 in    
Wind  
Wind Speed 8 mph (East)    
Max Wind Speed 17 mph    
Max Gust Speed 22 mph    
Visibility 10 miles    
Events      
Averages and records for this station are not official NWS values.
T = Trace of Precipitation, MM = Missing Value Source: NWS Daily Summary

Daily Weather History Graph

Daily Weather History Graph

Search for Another Location

Airport or City:

Trip Planner

Search our weather history database for the weather conditions in past years. The results will help you decide how hot, cold, wet, or windy it might be!

Date:

Astronomy

Sep. 12, 2013 Rise Set
Actual Time 7:23 AM CDT 7:54 PM CDT
Civil Twilight 6:57 AM CDT 8:20 PM CDT
Nautical Twilight 6:26 AM CDT 8:50 PM CDT
Astronomical Twilight 5:55 AM CDT 9:21 PM CDT
Moon 2:41 PM CDT (9/12) 12:04 AM CDT (9/12)
Length of Visible Light 13h 22m
Length of Day
12h 31m
Waxing Crescent, 50% of the Moon is Illuminated
Sep 12
Waxing Crescent
Sep 12
First Quarter
Sep 19
Full
Sep 26
Last Quarter
Oct 4
New

Hourly Weather History & Observations

Time (CDT) Temp. Heat Index Dew Point Humidity Pressure Visibility Wind Dir Wind Speed Gust Speed Precip Events Conditions
12:15 AM 71.8 °F - 63.5 °F 75% 30.16 in 10.0 mi NNE 5.8 mph - N/A   Unknown
12:35 AM 71.2 °F - 63.5 °F 76% 30.16 in 10.0 mi NNE 4.6 mph - N/A   Unknown
12:55 AM 70.9 °F - 63.5 °F 77% 30.16 in 10.0 mi NNE 4.6 mph - N/A   Unknown
1:15 AM 70.7 °F - 63.5 °F 78% 30.16 in 10.0 mi NE 5.8 mph - N/A   Unknown
1:35 AM 70.2 °F - 63.5 °F 79% 30.16 in 10.0 mi NNE 5.8 mph - N/A   Unknown
1:55 AM 70.2 °F - 63.7 °F 80% 30.15 in 10.0 mi NE 4.6 mph - N/A   Unknown
2:15 AM 70.2 °F - 63.9 °F 80% 30.16 in 10.0 mi ENE 6.9 mph - N/A   Unknown
2:35 AM 70.0 °F - 63.9 °F 81% 30.16 in 10.0 mi ENE 6.9 mph - N/A   Unknown
2:55 AM 70.0 °F - 63.9 °F 81% 30.16 in 10.0 mi ENE 9.2 mph - N/A   Unknown
3:15 AM 69.8 °F - 63.5 °F 80% 30.16 in 10.0 mi ENE 9.2 mph - N/A   Unknown
3:35 AM 70.0 °F - 63.7 °F 80% 30.16 in 10.0 mi ENE 9.2 mph - N/A   Unknown
3:55 AM 70.0 °F - 63.7 °F 80% 30.16 in 10.0 mi ENE 10.4 mph - N/A   Unknown
4:15 AM 69.8 °F - 63.9 °F 81% 30.16 in 10.0 mi ENE 9.2 mph - N/A   Unknown
4:35 AM 69.4 °F - 64.0 °F 83% 30.16 in 10.0 mi ENE 11.5 mph - N/A   Unknown
4:55 AM 69.1 °F - 64.4 °F 85% 30.16 in 10.0 mi ENE 8.1 mph - N/A   Unknown
5:15 AM 69.1 °F - 64.6 °F 86% 30.16 in 10.0 mi NE 10.4 mph - N/A   Unknown
5:35 AM 68.5 °F - 64.4 °F 87% 30.16 in 10.0 mi ENE 6.9 mph - N/A   Unknown
5:55 AM 68.4 °F - 64.4 °F 87% 30.16 in 10.0 mi ENE 9.2 mph - N/A   Unknown
6:15 AM 68.4 °F - 64.4 °F 87% 30.16 in 10.0 mi ENE 9.2 mph - N/A   Unknown
6:35 AM 68.4 °F - 64.4 °F 87% 30.16 in 10.0 mi East 9.2 mph - N/A   Unknown
6:55 AM 68.4 °F - 64.6 °F 88% 30.17 in 10.0 mi ENE 6.9 mph - N/A   Unknown
7:15 AM 68.5 °F - 64.8 °F 88% 30.17 in 10.0 mi East 8.1 mph - N/A   Unknown
7:35 AM 68.4 °F - 64.8 °F 88% 30.17 in 10.0 mi East 6.9 mph - N/A   Unknown
7:55 AM 68.4 °F - 64.9 °F 89% 30.18 in 10.0 mi East 5.8 mph - N/A   Unknown
8:15 AM 68.9 °F - 65.3 °F 88% 30.18 in 10.0 mi East 5.8 mph - N/A   Unknown
8:35 AM 69.4 °F - 65.5 °F 87% 30.19 in 10.0 mi East 5.8 mph - N/A   Unknown
8:55 AM 70.0 °F - 65.3 °F 85% 30.19 in 10.0 mi East 6.9 mph - N/A   Unknown
9:15 AM 71.4 °F - 65.1 °F 80% 30.19 in 10.0 mi East 6.9 mph - N/A   Unknown
9:35 AM 73.4 °F - 64.6 °F 74% 30.19 in 10.0 mi ESE 9.2 mph - N/A   Unknown
12:15 PM 84.4 °F 83.4 °F 56.1 °F 38% 30.19 in 10.0 mi SSW 8.1 mph - N/A   Unknown
12:35 PM 85.1 °F 83.5 °F 53.4 °F 34% 30.19 in 10.0 mi South 8.1 mph 17.3 mph N/A   Unknown
12:55 PM 85.6 °F - 52.7 °F 32% 30.18 in 10.0 mi SSE 5.8 mph - N/A   Unknown
1:15 PM 87.1 °F - 52.9 °F 31% 30.18 in 10.0 mi SE 9.2 mph - N/A   Unknown
1:35 PM 87.3 °F - 51.3 °F 29% 30.17 in 10.0 mi SE 8.1 mph - N/A   Unknown
1:55 PM 87.4 °F - 51.8 °F 29% 30.16 in 10.0 mi South 10.4 mph - N/A   Unknown
2:15 PM 87.1 °F - 52.2 °F 30% 30.15 in 10.0 mi ESE 4.6 mph - N/A   Unknown
2:35 PM 87.8 °F - 52.3 °F 30% 30.14 in 10.0 mi ESE 11.5 mph 16.1 mph N/A   Unknown
2:55 PM 87.6 °F - 52.7 °F 30% 30.14 in 10.0 mi East 5.8 mph - N/A   Unknown
3:15 PM 86.9 °F - 51.6 °F 30% 30.13 in 10.0 mi ESE 5.8 mph - N/A   Unknown
3:35 PM 87.1 °F - 51.8 °F 30% 30.12 in 10.0 mi SE 15.0 mph - N/A   Unknown
3:55 PM 87.8 °F - 51.8 °F 29% 30.11 in 10.0 mi ESE 9.2 mph 18.4 mph N/A   Unknown
4:15 PM 87.1 °F - 52.3 °F 30% 30.11 in 10.0 mi East 10.4 mph 17.3 mph N/A   Unknown
4:35 PM 86.2 °F 84.2 °F 53.1 °F 32% 30.10 in 10.0 mi East 9.2 mph - N/A   Unknown
4:55 PM 85.8 °F 84.3 °F 55.0 °F 35% 30.10 in 10.0 mi East 15.0 mph 18.4 mph N/A   Unknown
8:35 PM 76.5 °F - 62.2 °F 61% 30.12 in 10.0 mi East 13.8 mph - N/A   Unknown
8:55 PM 76.1 °F - 61.9 °F 61% 30.13 in 10.0 mi East 11.5 mph - N/A   Unknown
9:15 PM 74.8 °F - 63.5 °F 68% 30.14 in 10.0 mi East 17.3 mph - N/A   Unknown
10:35 PM 71.8 °F - 63.9 °F 76% 30.16 in 10.0 mi East 16.1 mph 21.9 mph N/A   Unknown
11:15 PM 70.5 °F - 63.7 °F 79% 30.16 in 10.0 mi East 12.7 mph - N/A   Unknown
11:35 PM 70.0 °F - 63.7 °F 80% 30.16 in 10.0 mi East 12.7 mph - N/A   Unknown
11:55 PM 69.8 °F - 63.7 °F 81% 30.16 in 10.0 mi East 11.5 mph - N/A   Unknown